[[{"header":{"parameterUnit":"m.s-1","parameterCategory":1,"la1":30.2991,"la2":30.254,"lo1":-89.0895,"lo2":-89.0444,"dy":0.0017,"dx":0.0017,"nx":28,"ny":28,"refTime":"2023-10-24T03:00:00:Z","depth":0,"parameterNumber":2,"parameterNumberName":"U-component_of_WINDS"},"data":[0,0,0,0,0,0,0,0,0,0,0,0,0,0,0,0,0,0,0,0,0,0,0,0,0,0,0,0,0,0,0,0,0,0,0,0,0,0,0,0,0,0,0,0,0,0,0,0,0,0,0,0,0,0,0,0,0,0,-3.7952,-3.7953,0,-3.8003,-3.8004,-3.8004,-3.7855,-3.785,-3.7846,-3.7841,-3.7898,-3.7904,-3.7909,0,0,0,0,0,0,0,0,0,0,0,0,0,-3.7731,-3.7735,-3.7952,-3.7953,-3.7953,-3.8003,-3.8004,-3.8004,-3.7856,-3.785,-3.7845,-3.7839,-3.7896,-3.7903,-3.791,0,0,0,0,0,0,0,0,0,0,0,0,0,-3.7809,-3.7737,-3.7952,-3.7885,-3.7879,-3.8003,-3.8004,-3.8005,-3.7857,-3.785,-3.7843,-3.7837,-3.7894,-3.7902,-3.7911,-3.8103,0,0,-3.7937,-3.7941,0,0,0,0,0,0,0,0,-3.7805,-3.7817,-3.7894,-3.789,-3.7884,-3.7915,-3.7946,-3.8038,-3.7859,-3.7866,-3.7841,-3.7833,-3.791,-3.7917,-3.7941,-3.8105,-3.8108,-3.7938,-3.7943,-3.7947,-3.795,0,0,0,0,0,0,0,-3.78,-3.7814,-3.7972,-3.7896,-3.7889,-3.7854,-3.7858,-3.7963,-3.7926,-3.7864,-3.7854,-3.7862,-3.7906,-3.7934,-3.7942,-3.8109,-3.7938,-3.7946,-3.7951,-3.7954,-3.8434,-3.8441,0,0,0,0,0,0,-3.7802,-3.7811,-3.7971,-3.7974,-3.7826,-3.7864,-3.7867,-3.7912,-3.7924,-3.7919,-3.7867,-3.7854,-3.7922,-3.7932,-3.7943,-3.8169,-3.7947,-3.7955,-3.796,-3.8427,-3.8436,-3.8444,0,0,0,0,0,0,-3.7798,-3.7818,-3.7969,-3.7889,-3.7906,-3.7875,-3.7926,-3.7917,-3.7945,-3.7926,-3.792,-3.7903,-3.7917,-3.7931,-3.8064,-3.8169,-3.7959,-3.7967,-3.8418,-3.843,-3.844,-3.8623,0,0,0,0,0,0,-3.7792,-3.7817,-3.7888,-3.7892,-3.7911,-3.8088,-3.7933,-3.7923,-3.796,-3.7943,-3.7957,-3.7953,-3.7913,-3.8052,-3.8073,-3.8177,-3.7974,-3.8408,-3.8423,-3.8436,-3.8608,-3.864,-3.8667,0,0,0,0,0,-3.7785,-3.7939,-3.7893,-3.7913,-3.7999,-3.8094,-3.8105,-3.8054,-3.7969,-3.8041,-3.803,-3.7953,-3.8155,-3.8067,-3.8089,-3.8198,-3.8402,-3.8419,-3.8435,-3.8595,-3.8633,-3.8666,0,0,0,0,0,0,-3.7949,-3.7938,-3.7887,-3.8046,-3.8072,-3.8069,-3.8158,-3.8096,-3.8148,-3.813,-3.8066,-3.8071,-3.8216,-3.822,-3.8123,-3.8385,-3.8264,-3.8286,-3.8377,-3.8414,-3.8443,-3.8439,-3.7981,0,0,0,0,0,-3.8004,-3.808,-3.8067,-3.8209,-3.8224,-3.819,-3.8229,-3.8188,-3.8212,-3.8223,-3.8221,-3.825,-3.8319,-3.8367,-3.843,-3.8608,-3.861,-3.8694,-3.8723,-3.8747,-3.8768,-3.8864,-3.8901,-3.85,-3.85,-3.8499,0,0,-3.8118,-3.8121,-3.8173,-3.8242,-3.8257,-3.834,-3.82,-3.8293,-3.8354,-3.8237,-3.8363,-3.8363,-3.8391,-3.8548,-3.8617,-3.8556,-3.8879,-3.8769,-3.8789,-3.8795,-3.8885,-3.8923,-3.8957,-3.8511,-3.8509,-3.8507,0,0,-3.8367,-3.8377,-3.8496,-3.8515,-3.8539,-3.8516,-3.8545,-3.8551,-3.8547,-3.8671,-3.8586,-3.8659,-3.878,-3.8804,-3.8832,-3.9093,-3.9025,-3.9115,-3.9269,-3.9364,-3.9395,-3.9423,-3.9518,-3.9552,-3.9135,-3.9136,-3.9136,0,-3.8506,-3.8625,-3.8566,-3.8666,-3.8699,-3.8597,-3.8719,-3.874,-3.8785,-3.8811,-3.8742,-3.8893,-3.8904,-3.9066,-3.913,-3.9155,-3.9188,-3.9113,-3.9395,-3.9423,-3.9448,-3.9537,-3.9573,-3.9147,-3.9146,-3.9144,-3.9143,0,-3.8795,-3.888,-3.8974,-3.9019,-3.9063,-3.9173,-3.9133,-3.9185,-3.9141,-3.9125,-3.9255,-3.9265,-3.9329,-3.9364,-3.9322,-3.9521,-3.9483,-3.9406,-3.9282,-3.9498,-3.9581,-3.9614,-3.9162,-3.9158,-3.9155,-3.9152,0,0,-3.9148,-3.916,-3.9196,-3.9216,-3.9236,-3.9301,-3.9408,-3.947,-3.9517,-3.9552,-3.9641,-3.9747,-3.9676,-3.9708,-3.9667,-3.9751,-3.9959,-3.9663,-3.9663,-3.9718,-4.0181,-4.0239,-4.0279,-3.9914,-3.992,-3.9925,-4.0179,0,-3.9394,-3.9575,-3.9527,-3.9708,-3.9787,-3.9692,-3.9785,-3.9809,-3.9798,-3.9864,-3.9852,-3.9929,-3.9829,-3.9848,-3.9926,-3.9917,-4.0051,-3.9898,-3.9998,-4.0002,-3.9994,-4.0322,-4.0383,-4.0622,-4.0211,-4.0216,-4.022,0,-3.9705,-3.9752,-3.9941,-3.995,-3.9981,-4.0066,-4.0119,-4.0183,-4.021,-4.0196,-4.0233,-4.0177,-4.0284,-4.016,-4.0309,-4.0206,-4.0244,-4.0246,-4.0254,-4.0262,-4.0124,-4.0339,-4.0697,-4.0733,-4.027,-4.0266,-4.0262,0,-3.9945,-4.0055,-4.0182,-4.0202,-4.0216,-4.0278,-4.0287,-4.0306,-4.0347,-4.0395,-4.0421,-4.0482,-4.0515,-4.0564,-4.0526,-4.0439,-4.0682,-4.0554,-4.0674,-4.0676,-4.0729,-4.0727,-4.1099,-4.0754,-4.0754,-4.0753,-4.0752,0,-4.0224,-4.0344,-4.029,-4.0369,-4.0501,-4.0446,-4.0579,-4.0577,-4.0595,-4.0674,-4.0596,-4.0671,-4.0617,-4.0688,-4.066,-4.0788,-4.0804,-4.0797,-4.0788,-4.0804,-4.0805,-4.0828,-4.0811,-4.0762,-4.076,-4.0759,-4.0757,0,-4.0514,-4.0482,-4.0615,-4.0618,-4.0622,-4.0719,-4.0722,-4.0796,-4.078,-4.088,-4.09,-4.0876,-4.0956,-4.0923,-4.1009,-4.099,-4.1154,-4.1123,-4.1145,-4.1137,-4.126,-4.1249,-4.166,-4.1712,-4.1334,-4.1337,-4.134,0,-4.0694,-4.0784,-4.0797,-4.0843,-4.0857,-4.0933,-4.0974,-4.0924,-4.097,-4.1008,-4.1079,-4.1152,-4.1208,-4.1341,-4.1332,-4.1398,-4.1368,-4.1508,-4.1377,-4.1391,-4.1371,-4.1366,-4.1376,-4.1534,-4.1538,-4.1542,-4.1545,0,-4.1018,-4.0999,-4.106,-4.1118,-4.1169,-4.1213,-4.1249,-4.1292,-4.1243,-4.13,-4.1381,-4.1425,-4.1512,-4.1587,-4.1646,-4.1656,-4.1594,-4.1586,-4.1617,-4.1635,-4.1644,-4.1641,-4.1216,-4.1577,-4.1573,-4.1571,-4.1569,-4.1568,-4.1259,-4.1335,-4.1356,-4.1428,-4.145,-4.1487,-4.1557,-4.155,-4.1615,-4.1682,-4.1649,-4.1743,-4.177,-4.1842,-4.1862,-4.1937,-4.1882,-4.1928,-4.1939,-4.1951,-4.1968,-4.1632,-4.1947,-4.1946,-4.1945,-4.1945,-4.1944,0,-4.1579,-4.1588,-4.1655,-4.1709,-4.1766,-4.1701,-4.1739,-4.1792,-4.1876,-4.1905,-4.1962,-4.2057,-4.2129,-4.2127,-4.2194,-4.2255,-4.2228,-4.2274,-4.2269,-4.2273,-4.2012,-4.1978,-4.2295,-4.2295,-4.2295,-4.2295,-4.2295,-4.2295,-4.1752,-4.1878,-4.1862,-4.1999,-4.2007,-4.2098,-4.2126,-4.216,-4.2183,-4.2291,-4.2351,-4.2348,-4.2366,-4.2435,-4.2499,-4.2497,-4.2526,-4.2583,-4.2571,-4.2326,-4.2291,-4.2258,-4.2226,-4.259,-4.259,-4.2825,-4.2828,-4.2829]},{"header":{"parameterUnit":"m.s-1","parameterCategory":1,"la1":30.2991,"la2":30.254,"lo1":-89.0895,"lo2":-89.0444,"dy":0.0017,"dx":0.0017,"nx":28,"ny":28,"refTime":"2023-10-24T03:00:00:Z","depth":0,"parameterNumber":3,"parameterNumberName":"V-component_of_WINDS"},"data":[0,0,0,0,0,0,0,0,0,0,0,0,0,0,0,0,0,0,0,0,0,0,0,0,0,0,0,0,0,0,0,0,0,0,0,0,0,0,0,0,0,0,0,0,0,0,0,0,0,0,0,0,0,0,0,0,0,0,-0.2872,-0.2872,0,-0.2853,-0.2853,-0.2853,-0.2884,-0.2885,-0.2886,-0.2887,-0.2865,-0.2864,-0.2862,0,0,0,0,0,0,0,0,0,0,0,0,0,-0.2931,-0.293,-0.2872,-0.2872,-0.2872,-0.2854,-0.2853,-0.2853,-0.2884,-0.2885,-0.2886,-0.2888,-0.2866,-0.2864,-0.2862,0,0,0,0,0,0,0,0,0,0,0,0,0,-0.2908,-0.2929,-0.2872,-0.2885,-0.2886,-0.2854,-0.2853,-0.2853,-0.2884,-0.2885,-0.2887,-0.2888,-0.2866,-0.2864,-0.2862,-0.2815,0,0,-0.2854,-0.2853,0,0,0,0,0,0,0,0,-0.2909,-0.2906,-0.2883,-0.2884,-0.2885,-0.2873,-0.2866,-0.284,-0.2883,-0.2884,-0.2887,-0.2889,-0.2866,-0.2864,-0.2857,-0.2814,-0.2813,-0.2854,-0.2853,-0.2852,-0.2851,0,0,0,0,0,0,0,-0.2911,-0.2907,-0.2865,-0.2883,-0.2884,-0.289,-0.2889,-0.2861,-0.2866,-0.2884,-0.2887,-0.2884,-0.2867,-0.2859,-0.2857,-0.2813,-0.2854,-0.2852,-0.2851,-0.285,-0.2728,-0.2726,0,0,0,0,0,0,-0.2911,-0.2908,-0.2865,-0.2864,-0.2901,-0.2888,-0.2886,-0.2875,-0.2867,-0.2867,-0.2883,-0.2886,-0.2862,-0.2859,-0.2856,-0.2799,-0.2852,-0.285,-0.2848,-0.273,-0.2728,-0.2726,0,0,0,0,0,0,-0.2912,-0.2907,-0.2866,-0.2887,-0.2882,-0.2885,-0.2872,-0.2874,-0.2866,-0.2866,-0.2866,-0.2874,-0.2863,-0.2859,-0.2825,-0.2798,-0.2848,-0.2846,-0.2732,-0.2729,-0.2727,-0.2685,0,0,0,0,0,0,-0.2914,-0.2907,-0.2891,-0.2886,-0.2881,-0.2836,-0.2871,-0.2872,-0.2862,-0.2866,-0.2858,-0.2858,-0.2864,-0.2828,-0.2822,-0.2796,-0.2844,-0.2734,-0.2731,-0.2727,-0.2689,-0.2682,-0.2675,0,0,0,0,0,-0.2916,-0.288,-0.289,-0.2884,-0.286,-0.2835,-0.2831,-0.2841,-0.286,-0.2842,-0.2842,-0.2858,-0.2803,-0.2824,-0.2818,-0.2791,-0.2736,-0.2732,-0.2728,-0.2692,-0.2683,-0.2675,0,0,0,0,0,0,-0.2881,-0.288,-0.2891,-0.2852,-0.2843,-0.284,-0.2818,-0.2831,-0.2816,-0.282,-0.2831,-0.2829,-0.2791,-0.2788,-0.2812,-0.2744,-0.2772,-0.2767,-0.2747,-0.2739,-0.2732,-0.2733,-0.2842,0,0,0,0,0,-0.2869,-0.2849,-0.2849,-0.2815,-0.281,-0.2815,-0.2804,-0.2812,-0.2803,-0.2799,-0.2796,-0.2786,-0.2766,-0.2752,-0.2734,-0.2689,-0.2686,-0.2667,-0.266,-0.2655,-0.2649,-0.2622,-0.2613,-0.2712,-0.2712,-0.2712,0,0,-0.2843,-0.284,-0.2827,-0.2808,-0.2802,-0.278,-0.2811,-0.2787,-0.277,-0.2795,-0.2762,-0.2759,-0.2748,-0.2707,-0.2689,-0.2703,-0.2621,-0.2649,-0.2645,-0.2642,-0.2617,-0.2608,-0.26,-0.2709,-0.271,-0.271,0,0,-0.2786,-0.2782,-0.2752,-0.2746,-0.2736,-0.274,-0.2732,-0.2727,-0.2726,-0.2693,-0.271,-0.269,-0.2656,-0.2647,-0.2638,-0.2574,-0.2588,-0.2568,-0.2531,-0.2505,-0.2497,-0.249,-0.2466,-0.2457,-0.2563,-0.2563,-0.2563,0,-0.2755,-0.2723,-0.2735,-0.2709,-0.2699,-0.2721,-0.269,-0.2682,-0.2667,-0.2659,-0.2675,-0.2632,-0.2626,-0.2582,-0.2567,-0.256,-0.255,-0.2569,-0.2498,-0.2491,-0.2485,-0.2461,-0.2452,-0.2561,-0.2561,-0.2561,-0.2561,0,-0.2685,-0.2663,-0.264,-0.2625,-0.2612,-0.2584,-0.259,-0.2575,-0.2584,-0.2585,-0.2549,-0.2543,-0.2523,-0.2514,-0.2522,-0.247,-0.2479,-0.2496,-0.2525,-0.2473,-0.245,-0.2442,-0.2557,-0.2558,-0.2559,-0.2559,0,0,-0.2604,-0.2595,-0.2587,-0.2579,-0.257,-0.2552,-0.2524,-0.2505,-0.2491,-0.248,-0.2454,-0.2425,-0.244,-0.243,-0.2437,-0.2414,-0.2361,-0.2434,-0.2434,-0.2419,-0.2301,-0.2286,-0.2276,-0.2371,-0.2369,-0.2368,-0.2301,0,-0.2545,-0.2497,-0.2506,-0.2458,-0.2437,-0.2456,-0.2431,-0.2422,-0.2421,-0.2402,-0.2401,-0.2379,-0.2403,-0.2396,-0.2375,-0.2372,-0.2338,-0.2378,-0.2345,-0.2344,-0.2346,-0.2265,-0.225,-0.2187,-0.2293,-0.2292,-0.229,0,-0.2469,-0.2455,-0.2405,-0.2397,-0.2389,-0.2366,-0.2348,-0.233,-0.2319,-0.232,-0.2308,-0.2318,-0.2288,-0.2318,-0.2275,-0.2302,-0.2289,-0.2286,-0.2284,-0.228,-0.2313,-0.2256,-0.2168,-0.2157,-0.2277,-0.2278,-0.2279,0,-0.2412,-0.2381,-0.2346,-0.234,-0.2331,-0.2314,-0.2309,-0.23,-0.2287,-0.2271,-0.2262,-0.2243,-0.2231,-0.2215,-0.222,-0.2242,-0.2175,-0.2206,-0.2173,-0.2173,-0.2157,-0.2157,-0.2063,-0.2152,-0.2152,-0.2152,-0.2152,0,-0.2344,-0.2312,-0.232,-0.2299,-0.2263,-0.2273,-0.2237,-0.2235,-0.2226,-0.2203,-0.2219,-0.2197,-0.2205,-0.2183,-0.2186,-0.2149,-0.2144,-0.2143,-0.2143,-0.214,-0.214,-0.213,-0.2134,-0.215,-0.215,-0.2151,-0.2151,0,-0.2274,-0.2279,-0.2242,-0.2236,-0.2234,-0.2207,-0.2202,-0.218,-0.2181,-0.2152,-0.2145,-0.2146,-0.2121,-0.2124,-0.2096,-0.2098,-0.205,-0.2058,-0.2054,-0.2055,-0.2021,-0.2023,-0.1915,-0.19,-0.2001,-0.2,-0.2,0,-0.2229,-0.2205,-0.2197,-0.2183,-0.2177,-0.2154,-0.2141,-0.215,-0.2135,-0.212,-0.21,-0.2076,-0.2057,-0.2015,-0.2012,-0.1989,-0.1995,-0.1959,-0.1991,-0.1988,-0.1991,-0.1992,-0.1988,-0.1951,-0.195,-0.1949,-0.1949,0,-0.2148,-0.2151,-0.2133,-0.2113,-0.2097,-0.2083,-0.207,-0.2057,-0.2064,-0.2047,-0.2021,-0.2006,-0.1977,-0.1952,-0.193,-0.1924,-0.1936,-0.1938,-0.1929,-0.1924,-0.1922,-0.192,-0.2034,-0.194,-0.1941,-0.1942,-0.1942,-0.1943,-0.2088,-0.2067,-0.2057,-0.2034,-0.2025,-0.2012,-0.1991,-0.199,-0.1969,-0.1946,-0.1952,-0.1922,-0.1909,-0.1882,-0.1873,-0.1849,-0.1862,-0.1849,-0.1845,-0.1841,-0.1836,-0.1928,-0.1845,-0.1845,-0.1846,-0.1846,-0.1846,0,-0.2006,-0.2,-0.198,-0.1961,-0.1942,-0.1957,-0.1943,-0.1926,-0.19,-0.1888,-0.1869,-0.1838,-0.1813,-0.1808,-0.1784,-0.1765,-0.177,-0.1758,-0.1759,-0.1756,-0.1827,-0.1837,-0.1755,-0.1755,-0.1755,-0.1755,-0.1755,-0.1755,-0.1961,-0.1925,-0.1926,-0.1885,-0.1879,-0.1851,-0.1841,-0.1828,-0.1818,-0.1783,-0.1763,-0.176,-0.175,-0.1725,-0.1702,-0.1701,-0.169,-0.1676,-0.1677,-0.1743,-0.1752,-0.176,-0.1769,-0.1674,-0.1674,-0.1608,-0.1607,-0.1607]}]]